Flag for Norway Weather past 2 weeks in Halden, Norway

Now
53 °F

Cool.


Feels Like: 53 °F
Forecast: 48 / 64 °F
Wind: 3 mph from East

Location: Stromtangen Fyr

Current Time: Sep 16, 2014 at 9:49:21 AM

Latest Report: Sep 16, 2014 at 9:00 AM


Visibility: N/A

Pressure: 30.40 "Hg

Humidity: 85%

Dew point: 49 °F

Location of HaldenLocation

Historic Weather in Halden — Graph

°F

Halden temperature yesterday

Maximum temperature yesterday: 66 °F (at 4:00 PM)
Minimum temperature yesterday: 52 °F (at 7:00 AM)
Average temperature yesterday: 59 °F

Past Weeks' High & Low Weather Summary

 TemperatureHumidityPressure
High69 °F (Sep 6, 3:00 PM)90% (Sep 3, 3:00 AM)30.47 "Hg (Sep 3, 3:00 AM)
Low51 °F (Sep 9, 4:00 AM)44% (Sep 14, 2:00 PM)29.77 "Hg (Sep 9, 5:00 AM)
Average60 °F76%30.18 "Hg
* Reported Sep 1 8:00 AM — Sep 16 8:00 AM, Halden, Weather by CustomWeather, © 2014

Note: Actual official high and low records may vary slightly from our data, if they occured in-between our weather recording intervals... More about our weather records

Advertising

Halden weather history for previous 24 hours

 ConditionsComfort  
Time TempWeatherWind HumidityBarometerVisibility
8:00 AM
Sep 16
52 °FCool.5 mph88%30.39 "HgN/A
7:00 AM52 °FCool.5 mph88%30.39 "HgN/A
6:00 AM52 °FCool.5 mph88%30.39 "HgN/A
5:00 AM53 °FCool.6 mph86%30.39 "HgN/A
4:00 AM54 °FCool.5 mph85%30.39 "HgN/A
3:00 AM54 °FCool.6 mph84%30.38 "HgN/A
2:00 AM55 °FCool.6 mph83%30.38 "HgN/A
1:00 AM55 °FCool.6 mph81%30.39 "HgN/A
12:00 AM57 °FCool.6 mph78%30.39 "HgN/A
11:00 PM
Sep 15
57 °FCool.6 mph75%30.39 "HgN/A
10:00 PM58 °FCool.5 mph73%30.39 "HgN/A
9:00 PM60 °FCool.5 mph71%30.39 "HgN/A
8:00 PM62 °FCool.5 mph67%30.38 "HgN/A
7:00 PM64 °FMild.6 mph64%30.37 "HgN/A
6:00 PM65 °FMild.7 mph55%30.37 "HgN/A
5:00 PM66 °FMild.6 mph52%30.37 "HgN/A
4:00 PM66 °FMild.7 mph49%30.38 "HgN/A
3:00 PM65 °FMild.7 mph50%30.40 "HgN/A
2:00 PM64 °FMild.8 mph53%30.42 "HgN/A
1:00 PM62 °FCool.5 mph69%30.43 "HgN/A
12:00 PM60 °FCool.7 mph71%30.45 "HgN/A
11:00 AM61 °FCool.7 mph70%30.45 "HgN/A
10:00 AM58 °FCool.5 mph74%30.46 "HgN/A
9:00 AM55 °FCool.5 mph78%30.45 "HgN/A
Weather by CustomWeather, © 2014

See weather overviewHow to use our weather pages